Theta_e
316 316 316 316 317 317 317 318 319 320 321 321 322 322 322 322 321 318 309 318 320 328 327 311 313 311 314 310 308 306 305 301 302 302 304 305 307 305 307 307 306 307 308 321 329
315 315 315 315 316 317 316 316 318 319 320 321 321 322 322 322 313 308 323 332 333 329 308 308 307 309 309 307 307 306 304 303 305 306 306 305 306 306 306 306 304 310 319 320 322
314 314 315 315 315 316 315 316 316 318 319 320 321 321 321 321 307 309 331 335 334 321 310 310 309 308 306 306 305 303 303 303 304 305 305 306 304 305 306 304 307 311 317 315 317
313 314 314 314 314 315 314 315 316 317 318 319 320 321 322 314 298 309 336 333 332 314 311 309 305 304 304 303 303 302 303 303 304 304 304 304 305 304 306 307 310 314 314 312 315
312 313 313 313 313 314 315 315 315 316 316 318 320 321 314 302 304 314 336 334 319 310 308 305 303 303 302 301 301 302 302 303 303 304 304 304 304 304 305 306 309 309 309 311 314
313 312 312 312 313 314 314 315 315 315 315 318 320 322 307 298 311 311 314 313 312 309 306 306 305 304 302 301 301 301 301 301 302 303 303 304 302 303 306 307 306 307 309 311 313
313 313 313 313 313 314 314 314 314 315 316 319 321 318 304 303 312 311 310 310 310 309 307 307 307 304 303 301 302 301 300 301 301 302 302 304 300 301 305 306 306 306 308 310 312
312 312 312 313 313 313 314 314 315 316 317 320 323 312 302 307 312 311 310 309 310 309 308 308 307 305 302 303 301 299 299 297 301 300 300 303 299 304 306 305 305 306 306 308 311
311 311 311 312 313 313 313 314 317 317 319 321 313 307 300 312 308 313 313 308 308 308 309 308 307 301 301 298 296 296 294 295 297 300 299 300 298 304 305 305 306 306 306 308 310
311 311 311 311 312 313 312 314 317 319 318 318 312 301 304 301 309 309 310 309 306 306 305 305 303 301 298 296 292 293 294 294 296 299 298 298 298 301 303 303 305 306 306 308 309
311 310 310 311 312 312 311 310 309 307 308 303 304 301 303 307 310 306 308 308 306 304 299 300 298 295 298 297 295 295 294 294 296 299 298 299 299 301 303 301 303 303 305 307 309
310 310 310 310 311 312 309 307 305 306 301 307 307 305 307 308 303 306 308 304 302 298 298 297 294 299 299 298 297 296 295 295 298 299 299 299 299 303 303 302 304 305 305 306 309
309 309 310 309 310 306 307 305 308 308 300 302 304 303 304 307 303 303 305 303 300 297 297 295 297 299 298 297 296 296 296 296 296 297 299 298 298 300 304 305 306 306 308 308 309
309 309 309 308 307 302 304 304 307 308 296 297 302 304 305 305 301 308 307 304 300 297 297 297 299 297 297 296 297 294 299 298 296 295 292 297 291 297 301 302 304 307 307 306 308
308 308 308 308 304 303 302 303 308 306 284 298 301 308 305 301 302 302 307 304 299 297 298 296 296 296 295 296 298 295 297 297 296 296 294 294 292 297 298 298 302 306 307 306 308
308 308 307 305 302 303 302 305 307 294 283 297 300 299 299 301 301 303 303 305 303 299 298 298 299 299 299 298 298 299 297 297 296 295 289 294 293 294 297 299 301 306 308 310 310
307 307 304 305 297 301 301 305 292 285 296 293 294 297 297 296 298 299 298 298 296 293 293 297 297 299 299 296 298 298 297 291 288 288 287 292 291 295 300 300 302 306 309 309 310
305 303 301 304 302 300 306 299 285 288 293 297 295 296 294 296 296 297 297 295 297 295 293 291 290 296 299 298 296 296 296 291 284 285 289 292 290 296 304 305 306 306 306 306 306
302 298 300 301 301 304 304 290 288 292 294 293 294 291 292 294 294 296 295 295 297 298 292 291 291 298 298 298 299 294 292 297 291 291 289 292 296 300 303 304 304 305 305 305 306
296 293 296 301 301 306 299 291 293 293 293 294 288 292 289 290 291 293 293 296 296 299 301 295 290 296 299 299 299 298 299 292 293 284 283 289 290 293 300 303 303 304 305 307 308
294 292 297 301 302 298 289 291 291 294 293 291 290 290 290 288 288 290 292 293 298 298 301 298 293 294 297 295 296 295 294 295 295 292 287 285 290 302 302 305 305 306 307 308 309
292 289 297 299 292 290 287 288 290 291 292 291 291 289 287 287 286 288 290 292 295 298 293 297 295 290 293 298 298 297 297 297 294 290 292 291 291 303 306 307 308 307 308 310 311
289 289 298 299 285 285 287 286 289 287 287 287 288 288 289 286 284 287 289 292 292 293 293 296 291 286 289 295 297 295 296 296 296 295 291 289 291 304 305 306 308 308 309 309 310
290 286 291 292 290 285 283 283 283 288 286 288 287 288 287 285 288 285 286 289 291 291 296 295 291 287 284 288 291 289 292 294 294 290 292 292 294 300 302 305 307 308 310 310 310
290 285 287 282 284 284 285 283 282 282 287 288 285 285 283 281 283 283 286 287 289 292 292 291 284 287 288 289 290 290 289 290 289 292 289 293 294 300 302 305 308 311 311 310 309
287 286 289 285 285 284 283 282 282 284 284 283 283 284 284 281 282 281 284 285 284 289 290 293 285 287 285 288 288 285 287 288 289 291 292 294 294 302 304 305 305 308 308 308 309
293 292 289 285 283 282 282 282 282 285 285 286 284 283 282 284 287 289 289 289 289 286 286 286 285 283 279 285 283 280 285 287 289 291 291 290 296 303 302 303 304 306 308 308 309
Wind_Speed
21 21 20 18 17 16 16 16 15 13 13 13 12 8 8 8 6 3 5 3 4 8 4 2 4 2 2 3 2 2 3 7 8 9 6 5 6 4 2 9 4 2 3 11 12
22 22 21 20 19 17 17 16 16 15 13 13 13 10 7 7 3 6 3 8 8 8 3 5 6 5 4 3 3 3 3 7 4 5 9 8 6 8 7 9 6 13 12 12 11
23 23 22 22 20 18 17 17 16 15 13 12 12 10 8 4 4 3 5 8 7 5 3 2 4 3 4 2 4 4 3 3 5 4 7 10 5 2 9 4 10 20 19 14 12
25 24 24 23 22 20 19 18 17 15 15 13 11 10 10 5 3 0 7 8 7 5 4 5 4 5 4 7 1 4 3 3 4 6 7 10 8 6 7 3 11 19 21 15 15
25 25 25 25 23 21 19 18 17 15 13 13 11 8 3 1 4 0 6 6 5 4 4 5 3 4 6 5 4 4 1 3 1 7 5 7 5 2 7 5 14 16 15 17 14
26 26 26 26 25 23 20 18 15 13 12 11 9 9 1 4 3 4 8 4 2 2 1 2 3 2 5 3 3 2 1 2 1 3 1 7 3 2 7 8 15 17 16 16 17
26 26 26 26 25 24 22 18 14 12 10 9 7 2 1 8 5 2 8 4 3 2 1 1 3 2 4 5 1 3 5 2 5 5 2 4 6 8 4 9 17 17 15 16 16
27 27 28 27 26 25 23 20 16 10 7 5 3 1 6 1 2 4 5 3 3 2 1 4 3 5 2 3 3 3 2 8 5 7 2 9 15 11 10 12 17 18 15 16 18
27 27 27 28 27 25 22 21 8 2 3 4 2 1 6 5 4 3 5 5 5 3 3 5 3 3 2 5 4 1 6 6 3 6 3 12 8 13 6 13 16 18 16 16 17
28 28 28 28 27 24 22 7 4 5 3 2 1 3 4 1 2 2 2 5 3 6 3 2 4 3 3 6 12 8 7 5 7 7 5 9 12 7 5 14 17 19 17 17 19
29 29 28 29 28 20 8 1 4 1 2 5 3 3 3 5 2 3 4 7 4 2 6 2 6 8 7 6 3 4 3 4 2 3 5 10 11 13 10 10 13 14 15 17 19
31 31 32 30 27 15 2 7 6 5 11 9 13 12 13 3 3 0 7 7 6 8 5 4 10 8 4 6 5 4 4 5 6 6 6 8 12 11 7 9 14 17 18 20 19
31 31 32 31 21 5 4 7 6 5 5 5 4 3 1 9 8 5 8 5 4 7 8 5 2 9 7 6 6 6 8 5 7 3 2 5 14 10 8 11 11 16 17 20 24
31 31 30 35 2 4 0 9 9 5 4 4 1 1 2 3 6 9 6 5 3 8 7 6 2 7 7 5 8 7 13 7 6 5 7 2 7 5 7 10 10 16 16 16 19
31 31 28 11 5 3 10 14 6 4 5 5 3 1 1 4 2 2 3 3 8 6 6 2 7 8 6 5 9 1 2 6 4 6 3 6 7 3 3 9 13 12 10 10 14
33 32 24 2 1 6 16 11 3 1 7 4 6 8 6 1 1 2 4 3 2 6 4 6 1 4 4 2 5 11 8 6 4 2 9 10 10 7 6 5 4 3 9 9 9
35 32 10 4 8 18 12 2 1 5 6 5 5 9 7 5 4 5 4 9 10 6 10 10 11 4 4 4 4 5 8 3 5 6 7 2 7 10 6 5 9 13 12 11 12
36 19 4 2 12 11 3 1 5 2 2 3 5 8 3 9 4 7 2 3 2 1 3 6 7 9 9 13 9 15 11 6 6 6 2 4 8 3 2 2 5 8 9 6 6
24 5 3 10 14 4 2 2 4 3 6 7 7 3 0 2 6 6 4 5 5 7 6 5 8 2 6 4 8 7 10 5 4 2 5 8 8 11 9 7 4 5 3 3 6
7 5 5 18 12 1 2 3 1 7 8 5 4 2 2 4 5 4 2 6 5 6 4 2 7 5 3 5 4 6 11 5 1 6 9 7 7 9 6 8 4 5 5 6 9
3 5 9 19 3 4 2 2 2 7 9 4 4 5 2 3 2 2 3 4 7 7 6 6 1 2 2 8 14 6 8 3 2 4 8 10 8 7 11 8 9 9 9 12 14
5 3 11 13 5 3 4 9 8 7 8 5 2 2 2 5 3 4 6 5 10 6 3 6 3 6 11 3 4 4 10 14 7 15 4 8 16 8 8 9 11 12 14 14 15
4 4 6 8 6 6 6 6 4 8 8 8 5 6 4 2 3 3 3 4 14 9 7 7 3 5 7 8 2 6 2 4 7 3 16 13 18 4 4 7 13 13 15 16 15
3 5 5 6 5 7 8 5 6 8 3 6 6 6 6 6 3 4 3 0 10 7 15 8 6 9 12 9 12 16 14 13 8 7 17 17 26 18 10 11 11 14 14 15 16
5 4 3 6 6 8 5 5 10 6 4 8 1 8 8 4 7 7 9 10 11 15 10 5 16 16 22 20 15 19 19 18 18 22 17 22 22 26 15 14 14 16 15 16 17
4 4 2 5 3 4 4 2 8 6 7 7 11 11 11 9 11 18 18 15 12 11 12 4 12 10 20 16 13 19 21 26 24 24 23 27 27 30 20 14 17 14 14 16 17
1 2 1 0 3 5 4 6 7 12 8 5 13 16 15 18 15 13 11 13 15 13 14 9 5 6 23 12 14 17 34 25 26 27 22 23 28 23 25 19 17 17 17 18 18
Wind_Direction
354 353 350 347 343 341 339 335 330 324 315 306 302 301 305 307 306 193 232 209 167 153 140 139 152 111 151 140 125 166 189 193 181 182 153 154 147 128 116 131 97 51 115 123 127
352 349 347 344 341 336 335 333 327 321 315 308 305 303 301 307 262 247 257 149 156 160 151 176 167 158 156 151 144 206 227 198 191 183 168 161 162 140 153 142 90 100 108 121 136
350 348 345 341 338 334 331 328 325 318 310 305 302 297 293 273 264 233 168 172 172 150 110 130 127 181 158 183 168 160 244 184 194 196 177 160 159 84 138 173 171 154 147 144 140
348 345 342 339 334 331 328 325 322 316 310 304 304 307 305 227 234 322 170 172 149 129 141 139 150 145 152 170 171 217 223 196 147 160 152 169 138 159 192 112 166 155 149 148 151
345 342 339 335 331 327 323 322 318 313 306 304 304 314 282 273 250 10 162 151 149 151 180 143 131 148 158 155 144 213 36 177 315 159 120 142 179 223 201 88 143 147 156 158 154
340 338 335 332 328 326 323 318 311 305 299 295 301 314 235 254 112 185 154 168 191 194 129 122 148 166 111 130 183 149 120 95 161 160 90 188 141 204 228 123 143 160 169 169 167
337 335 331 329 327 326 323 316 307 296 288 289 296 292 234 247 143 142 174 181 173 199 74 85 131 206 140 136 72 117 157 120 161 172 175 155 229 218 141 176 169 177 178 178 181
338 334 331 329 327 326 323 316 305 280 264 253 274 234 249 192 197 207 176 185 198 232 228 120 85 92 24 122 59 122 132 188 158 171 135 205 241 228 195 179 189 186 181 188 191
339 335 333 330 327 325 323 319 311 168 179 177 173 224 263 314 236 195 186 168 144 115 57 96 77 68 123 163 163 49 200 204 205 212 130 209 252 239 200 199 199 194 187 192 195
340 336 336 333 328 326 321 293 2 120 111 171 93 277 251 65 227 163 169 154 127 131 134 62 70 150 143 199 218 196 195 198 201 171 207 216 236 238 258 212 208 203 197 195 199
342 337 338 336 332 328 340 151 352 39 2 241 226 254 280 282 248 191 163 132 112 111 205 52 219 222 215 191 125 128 166 199 207 176 224 231 242 248 214 211 217 217 212 210 208
342 341 337 338 333 324 294 70 78 305 300 260 260 261 263 302 321 209 167 163 173 205 139 175 238 223 179 172 184 196 215 223 268 233 220 244 251 252 210 220 217 219 217 217 217
342 341 336 339 328 14 26 80 327 187 251 296 218 223 281 187 216 248 188 146 166 171 192 223 85 142 181 180 187 201 213 209 239 140 226 283 263 238 239 236 229 229 225 219 214
342 337 339 331 50 345 79 345 329 198 311 280 175 104 155 176 207 204 184 166 174 212 175 246 162 208 176 188 198 233 211 226 206 207 246 299 277 238 236 239 233 238 222 225 219
340 336 337 342 310 352 328 329 313 221 301 6 41 95 142 206 335 88 184 181 200 169 188 172 170 174 200 242 188 218 121 204 174 209 255 191 258 231 236 239 242 245 260 240 231
338 335 334 91 255 302 323 314 209 226 250 2 11 359 356 312 341 119 157 91 80 186 232 265 184 214 240 101 203 145 104 73 75 162 249 227 233 244 226 221 201 257 279 274 241
339 333 332 324 334 322 319 280 209 221 2 8 344 339 336 334 22 27 174 181 206 190 220 229 230 216 193 204 115 202 161 162 208 206 248 142 219 269 256 247 270 298 294 288 274
336 332 308 267 323 323 305 17 208 59 349 5 327 317 329 9 36 347 26 183 100 205 198 244 246 188 177 210 201 204 214 197 214 214 223 147 235 220 195 215 267 278 292 291 241
333 341 344 339 335 319 20 270 335 1 330 331 319 311 167 8 353 346 32 26 47 18 231 209 235 257 208 149 187 157 209 252 248 88 250 237 246 269 238 231 249 273 259 224 192
334 328 353 336 328 309 146 216 46 24 334 323 291 291 264 341 348 17 5 13 351 3 323 41 279 228 247 144 85 222 144 163 158 237 241 221 252 241 226 209 206 208 204 176 172
2 351 353 338 334 41 197 92 29 12 6 334 320 302 359 340 322 284 284 57 357 351 30 2 220 207 266 212 232 178 215 212 234 244 249 269 254 204 234 225 199 199 190 175 175
337 355 347 336 54 34 34 339 332 347 3 343 11 59 53 7 292 250 258 37 1 353 28 18 299 250 254 298 355 312 262 221 213 221 241 271 264 177 216 200 194 197 195 195 195
359 306 340 344 53 32 342 320 333 12 353 353 348 13 6 291 284 272 357 107 22 29 27 354 229 276 237 228 230 243 354 342 308 260 235 235 260 163 229 202 210 208 204 206 213
343 348 4 37 48 15 353 317 327 339 324 4 321 333 347 296 265 288 304 156 348 355 336 334 252 251 259 284 315 283 285 296 299 276 252 240 261 250 217 218 212 218 222 215 214
10 54 19 357 357 355 331 309 314 321 343 350 289 54 26 297 309 267 278 307 314 315 297 269 263 266 265 268 264 276 281 275 263 260 261 267 271 271 265 241 233 224 221 225 221
28 355 8 304 271 340 332 299 304 323 344 314 304 330 327 292 280 285 292 290 283 290 273 265 258 260 261 257 268 277 271 260 261 262 263 265 269 268 279 271 247 232 225 230 233
118 163 215 281 279 288 279 292 288 312 304 271 308 303 296 287 288 286 285 276 270 278 278 291 269 257 261 264 280 267 246 257 257 257 254 259 263 278 274 261 248 242 237 239 239